Weather History for Fort Sill, OK

Change the Weather History Date:

Saturday, December 22, 2012

  Actual Average Record
Temperature  
Mean Temperature 44 °F -  
Max Temperature 59 °F 49 °F 78 °F (1969)
Min Temperature 29 °F 26 °F -8 °F (1989)
Degree Days  
Heating Degree Days 21    
Moisture  
Dew Point 18 °F    
Average Humidity 36    
Maximum Humidity 65    
Minimum Humidity 15    
Precipitation  
Precipitation 0.00 in - - ()
Sea Level Pressure  
Sea Level Pressure 30.09 in    
Wind  
Wind Speed 7 mph (South)    
Max Wind Speed 21 mph    
Max Gust Speed 28 mph    
Visibility 10 miles    
Events      
Averages and records for this station are not official NWS values.
T = Trace of Precipitation, MM = Missing Value Source: NWS Daily Summary

Daily Weather History Graph

Daily Weather History Graph

Search for Another Location

Airport:

Trip Planner

Search our weather history database for the weather conditions in past years. The results will help you decide how hot, cold, wet, or windy it might be!

Date:

Astronomy

Dec. 22, 2012 Rise Set
Actual Time 7:37 AM CST 5:27 PM CST
Civil Twilight 7:09 AM CST 5:55 PM CST
Nautical Twilight 6:37 AM CST 6:27 PM CST
Astronomical Twilight 6:07 AM CST 6:57 PM CST
Moon 1:39 PM CST (12/22) 2:31 AM CST (12/22)
Length of Visible Light 10h 46m
Length of Day
9h 50m
Waxing Gibbous, 74% of the Moon is Illuminated
Dec 22
Waxing Gibbous
Dec 28
Full
Jan 4
Last Quarter
Jan 11
New
Jan 18
First Quarter

Hourly Weather History & Observations

Time (CST) Temp. Windchill Dew Point Humidity Pressure Visibility Wind Dir Wind Speed Gust Speed Precip Events Conditions
12:55 AM 33.4 °F 30.4 °F 10.2 °F 38% 30.22 in 10.0 mi South 3.5 mph - N/A   Clear
1:55 AM 33.8 °F 28.6 °F 9.9 °F 37% 30.21 in 10.0 mi SSW 5.8 mph - N/A   Clear
2:55 AM 35.8 °F 31.9 °F 8.1 °F 32% 30.20 in 10.0 mi South 4.6 mph - N/A   Clear
3:55 AM 33.3 °F 28.9 °F 10.6 °F 39% 30.19 in 10.0 mi South 4.6 mph - N/A   Clear
4:55 AM 31.5 °F 26.8 °F 11.1 °F 43% 30.18 in 10.0 mi SSE 4.6 mph - N/A   Clear
5:55 AM 30.7 °F 27.3 °F 12.2 °F 46% 30.18 in 10.0 mi SE 3.5 mph - N/A   Clear
6:55 AM 29.8 °F 24.9 °F 12.6 °F 49% 30.19 in 10.0 mi South 4.6 mph - N/A   Clear
7:55 AM 30.2 °F - 12.0 °F 47% 30.19 in 10.0 mi Calm Calm - N/A   Clear
8:55 AM 33.8 °F 29.6 °F 14.5 °F 45% 30.18 in 10.0 mi South 4.6 mph - N/A   Clear
9:55 AM 46.2 °F 41.7 °F 12.4 °F 26% 30.17 in 10.0 mi SSW 9.2 mph 18.4 mph N/A   Clear
10:55 AM 52.5 °F - 9.0 °F 17% 30.15 in 10.0 mi SW 20.7 mph 27.6 mph N/A   Clear
11:55 AM 54.3 °F - 10.6 °F 18% 30.12 in 10.0 mi SW 12.7 mph 26.5 mph N/A   Clear
12:55 PM 56.8 °F - 9.9 °F 15% 30.08 in 10.0 mi SW 12.7 mph 27.6 mph N/A   Clear
1:55 PM 58.1 °F - 10.8 °F 15% 30.04 in 10.0 mi SSW 12.7 mph - N/A   Clear
2:55 PM 59.4 °F - 12.0 °F 16% 30.01 in 10.0 mi SSW 16.1 mph 23.0 mph N/A   Clear
3:55 PM 58.6 °F - 16.5 °F 19% 30.01 in 10.0 mi South 11.5 mph - N/A   Clear
4:55 PM 58.5 °F - 18.9 °F 21% 29.99 in 10.0 mi SSW 9.2 mph - N/A   Clear
5:55 PM 57.4 °F - 26.1 °F 30% 29.97 in 10.0 mi SSW 13.8 mph - N/A   Clear
6:55 PM 55.6 °F - 29.3 °F 37% 29.96 in 10.0 mi South 11.5 mph - N/A   Partly Cloudy
7:55 PM 53.1 °F - 32.0 °F 45% 29.99 in 10.0 mi SSW 8.1 mph - N/A   Clear
8:55 PM 52.3 °F - 33.8 °F 49% 29.98 in 10.0 mi South 9.2 mph - N/A   Mostly Cloudy
9:55 PM 49.6 °F - 33.4 °F 54% 29.96 in 10.0 mi SE 3.5 mph - N/A   Overcast
10:55 PM 47.8 °F - 34.0 °F 59% 29.95 in 10.0 mi Calm Calm - N/A   Overcast
11:55 PM 45.9 °F - 34.5 °F 65% 29.93 in 10.0 mi Calm Calm - N/A   Overcast